Location: Mauries
(43.6188°N, 0.3322°W)
Time: 17:58:58
(UTC+00:00)

Tiangong - Visible Passes

Search period start: 13 March 2026 00:00
Search period end: 23 March 2026 00:00
Orbit: 381 x 390 km, 41.5° (Epoch: 12 March)

Date Brightness Start Highest point End Pass type
(mag) Time Alt. Az. Time Alt. Az. Time Alt. Az.
13 Mar 0.2 04:21:56 17° SSE 04:21:56 17° SSE 04:23:59 10° ESE visible
14 Mar -1.0 04:57:30 24° SSW 04:58:50 35° SSE 05:01:47 10° E visible
15 Mar 0.3 04:00:44 19° ESE 04:00:44 19° ESE 04:02:06 10° E visible
15 Mar -1.7 05:32:57 11° WSW 05:35:57 55° S 05:39:05 10° E visible
16 Mar -1.7 04:36:06 45° S 04:36:24 46° SSE 04:39:28 10° E visible
17 Mar 0.9 03:39:12 14° E 03:39:12 14° E 03:39:46 10° E visible
17 Mar -1.9 05:11:24 19° WSW 05:13:26 59° S 05:16:35 10° E visible
18 Mar -1.2 04:14:26 44° SE 04:14:26 44° SE 04:16:54 10° E visible
19 Mar -1.9 04:49:39 34° WSW 04:50:44 54° S 04:53:51 10° ESE visible
20 Mar 0.0 03:52:38 24° ESE 03:52:38 24° ESE 03:54:05 10° E visible
20 Mar -1.2 05:24:50 11° W 05:27:34 34° SSW 05:30:29 10° SE visible
21 Mar -1.7 04:27:51 45° S 04:27:51 45° S 04:30:51 10° ESE visible
22 Mar 1.1 03:30:53 11° ESE 03:30:53 11° ESE 03:31:03 10° ESE visible
22 Mar -0.7 05:03:05 18° WSW 05:04:27 24° SSW 05:07:05 10° SSE visible
